| time (UTC) | temp F | wind direction | speed MPH | gust MPH | rain 1hr in | rain 24hr in | rain mn in | humidity % | barometer mb |
| 20260507063020 | 49 | 20 | 0.0 | 0.0 | 0.00 | 0.08 | 0.00 | 96 | 1014.1 |
| 20260507061523 | 48 | 20 | 0.0 | 0.0 | 0.00 | 0.08 | 0.00 | 96 | 1013.9 |
| 20260507060012 | 48 | 20 | 0.0 | 0.0 | 0.00 | 0.08 | 0.00 | 96 | 1014.0 |
| 20260507054511 | 47 | 20 | 0.0 | 0.0 | 0.00 | 0.08 | 0.00 | 96 | 1013.9 |
| 20260507053016 | 46 | 20 | 0.0 | 0.0 | 0.00 | 0.08 | 0.00 | 96 | 1013.7 |
| 20260507051522 | 46 | 20 | 0.0 | 0.0 | 0.00 | 0.08 | 0.00 | 96 | 1013.6 |
| 20260507050039 | 46 | 20 | 0.0 | 0.0 | 0.00 | 0.08 | 0.00 | 95 | 1013.4 |
| 20260507044527 | 46 | 20 | 0.0 | 0.0 | 0.00 | 0.08 | 0.00 | 95 | 1013.3 |
| 20260507043014 | 46 | 20 | 0.0 | 0.0 | 0.00 | 0.08 | 0.00 | 95 | 1013.3 |
| 20260507041504 | 46 | 20 | 0.0 | 0.0 | 0.00 | 0.08 | 0.00 | 95 | 1013.3 |
| 20260507040004 | 46 | 20 | 0.0 | 0.0 | 0.00 | 0.08 | 0.00 | 95 | 1013.2 |
| 20260507034507 | 46 | 20 | 0.0 | 0.0 | 0.00 | 0.08 | 0.00 | 94 | 1013.2 |
| 20260507033009 | 46 | 20 | 0.0 | 0.0 | 0.00 | 0.08 | 0.00 | 95 | 1013.3 |
| 20260507031508 | 47 | 20 | 0.0 | 0.0 | 0.00 | 0.08 | 0.00 | 95 | 1013.3 |
| 20260507030004 | 47 | 20 | 0.0 | 0.0 | 0.00 | 0.08 | 0.00 | 95 | 1013.2 |
| 20260507024506 | 47 | 20 | 0.0 | 0.0 | 0.00 | 0.08 | 0.00 | 95 | 1013.1 |
| 20260507023008 | 47 | 20 | 0.0 | 0.0 | 0.00 | 0.08 | 0.00 | 94 | 1013.2 |
| 20260507021512 | 48 | 20 | 0.0 | 0.0 | 0.00 | 0.08 | 0.00 | 95 | 1013.2 |
| 20260507020013 | 48 | 20 | 0.0 | 0.0 | 0.00 | 0.08 | 0.00 | 94 | 1012.9 |
| 20260507014503 | 48 | 20 | 0.0 | 1.0 | 0.00 | 0.08 | 0.00 | 94 | 1012.9 |
| 20260507013007 | 48 | 20 | 0.0 | 0.0 | 0.00 | 0.08 | 0.00 | 94 | 1012.9 |
| 20260507011510 | 48 | 20 | 0.0 | 0.0 | 0.00 | 0.08 | 0.00 | 94 | 1013.0 |
| 20260507010023 | 48 | 20 | 0.0 | 0.0 | 0.00 | 0.08 | 0.00 | 94 | 1013.0 |
| 20260507004518 | 48 | 20 | 0.0 | 0.0 | 0.00 | 0.08 | 0.00 | 94 | 1013.0 |
| 20260507003004 | 48 | 20 | 0.0 | 0.0 | 0.00 | 0.08 | 0.00 | 93 | 1013.1 |
| 20260507001509 | 49 | 20 | 0.0 | 0.0 | 0.00 | 0.08 | 0.00 | 94 | 1013.1 |
| 20260507000012 | 49 | 20 | 0.0 | 0.0 | 0.00 | 0.08 | 0.00 | 94 | 1013.0 |
| 20260506234520 | 49 | 20 | 0.0 | 0.0 | 0.00 | 0.08 | 0.00 | 93 | 1013.0 |
| 20260506233020 | 49 | 20 | 0.0 | 0.0 | 0.00 | 0.08 | 0.00 | 93 | 1013.0 |
| 20260506231508 | 49 | 20 | 0.0 | 0.0 | 0.00 | 0.08 | 0.00 | 94 | 1012.9 |
| 20260506230010 | 49 | 20 | 0.0 | 0.0 | 0.00 | 0.08 | 0.00 | 93 | 1012.8 |
| 20260506224515 | 49 | 20 | 0.0 | 0.0 | 0.00 | 0.08 | 0.00 | 93 | 1012.8 |
| 20260506223022 | 49 | 20 | 0.0 | 0.0 | 0.00 | 0.08 | 0.00 | 93 | 1012.7 |
| 20260506221524 | 49 | 20 | 0.0 | 0.0 | 0.00 | 0.08 | 0.00 | 93 | 1012.7 |
| 20260506220008 | 49 | 20 | 0.0 | 3.0 | 0.00 | 0.08 | 0.00 | 93 | 1012.4 |
| 20260506214514 | 50 | 20 | 1.0 | 4.0 | 0.00 | 0.08 | 0.08 | 93 | 1012.4 |
| 20260506213019 | 50 | 20 | 1.0 | 5.0 | 0.00 | 0.08 | 0.08 | 92 | 1012.3 |
| 20260506211537 | 50 | 7 | 0.0 | 2.0 | 0.00 | 0.08 | 0.08 | 93 | 1012.3 |
| 20260506210032 | 50 | 7 | 1.0 | 2.0 | 0.00 | 0.08 | 0.08 | 93 | 1012.3 |
| 20260506204515 | 50 | 7 | 1.0 | 4.0 | 0.00 | 0.08 | 0.08 | 93 | 1012.2 |
| 20260506203016 | 50 | 7 | 0.0 | 0.0 | 0.00 | 0.08 | 0.08 | 94 | 1012.0 |
| 20260506201527 | 50 | 7 | 0.0 | 0.0 | 0.00 | 0.08 | 0.08 | 94 | 1012.1 |
| 20260506200029 | 50 | 7 | 0.0 | 0.0 | 0.00 | 0.08 | 0.08 | 93 | 1011.8 |
| 20260506194527 | 50 | 7 | 0.0 | 0.0 | 0.00 | 0.08 | 0.08 | 93 | 1011.6 |
| 20260506193012 | 51 | 7 | 0.0 | 0.0 | 0.00 | 0.08 | 0.08 | 92 | 1011.4 |
| 20260506191519 | 51 | 7 | 0.0 | 0.0 | 0.00 | 0.08 | 0.08 | 92 | 1011.3 |
| 20260506190005 | 51 | 7 | 0.0 | 0.0 | 0.00 | 0.08 | 0.08 | 91 | 1011.2 |
| 20260506184507 | 52 | 7 | 0.0 | 0.0 | 0.00 | 0.08 | 0.08 | 89 | 1010.9 |
| 20260506183010 | 53 | 7 | 0.0 | 0.0 | 0.00 | 0.08 | 0.08 | 88 | 1010.8 |
| 20260506181533 | 53 | 7 | 0.0 | 2.0 | 0.00 | 0.08 | 0.08 | 88 | 1010.7 |
| 20260506180019 | 53 | 7 | 0.0 | 2.0 | 0.00 | 0.08 | 0.08 | 88 | 1010.6 |
| 20260506174504 | 54 | 7 | 0.0 | 4.0 | 0.00 | 0.08 | 0.08 | 87 | 1010.3 |
| 20260506173007 | 54 | 7 | 1.0 | 4.0 | 0.00 | 0.09 | 0.08 | 86 | 1010.1 |
| 20260506171520 | 54 | 359 | 0.0 | 3.0 | 0.01 | 0.14 | 0.08 | 86 | 1009.9 |
| 20260506170018 | 54 | 359 | 1.0 | 4.0 | 0.03 | 0.14 | 0.08 | 87 | 1009.9 |
| 20260506164522 | 54 | 49 | 1.0 | 5.0 | 0.06 | 0.14 | 0.08 | 87 | 1009.8 |
| 20260506163007 | 54 | 356 | 2.0 | 5.0 | 0.06 | 0.14 | 0.08 | 88 | 1009.9 |
| 20260506161510 | 53 | 295 | 0.0 | 4.0 | 0.06 | 0.13 | 0.07 | 87 | 1010.0 |
| 20260506160024 | 53 | 308 | 1.0 | 9.0 | 0.04 | 0.11 | 0.05 | 85 | 1010.0 |
| 20260506154525 | 54 | 241 | 2.0 | 8.0 | 0.02 | 0.08 | 0.02 | 84 | 1010.0 |
| 20260506153030 | 54 | 263 | 2.0 | 5.0 | 0.02 | 0.08 | 0.02 | 85 | 1009.9 |
| 20260506151516 | 54 | 9 | 3.0 | 7.0 | 0.01 | 0.07 | 0.01 | 85 | 1009.7 |
| 20260506150016 | 54 | 344 | 2.0 | 8.0 | 0.01 | 0.07 | 0.01 | 87 | 1009.5 |
| 20260506144519 | 55 | 328 | 3.0 | 9.0 | 0.00 | 0.06 | 0.00 | 82 | 1009.5 |
| 20260506143026 | 56 | 344 | 4.0 | 10.0 | 0.00 | 0.06 | 0.00 | 80 | 1009.4 |
| 20260506141526 | 55 | 185 | 1.0 | 5.0 | 0.00 | 0.06 | 0.00 | 79 | 1009.1 |
| 20260506140016 | 54 | 185 | 1.0 | 4.0 | 0.00 | 0.06 | 0.00 | 79 | 1009.1 |
| 20260506134525 | 56 | 200 | 3.0 | 10.0 | 0.00 | 0.06 | 0.00 | 74 | 1009.3 |
| 20260506133035 | 58 | 259 | 6.0 | 13.0 | 0.00 | 0.06 | 0.00 | 69 | 1009.3 |
| 20260506131523 | 59 | 254 | 7.0 | 12.0 | 0.00 | 0.06 | 0.00 | 70 | 1009.1 |
| 20260506130028 | 59 | 257 | 4.0 | 11.0 | 0.00 | 0.06 | 0.00 | 73 | 1009.1 |
| 20260506124510 | 58 | 219 | 7.0 | 12.0 | 0.00 | 0.06 | 0.00 | 73 | 1009.3 |
| 20260506123017 | 58 | 238 | 7.0 | 12.0 | 0.00 | 0.07 | 0.00 | 74 | 1009.3 |
| 20260506121522 | 58 | 210 | 5.0 | 15.0 | 0.00 | 0.11 | 0.00 | 77 | 1009.3 |
| 20260506120026 | 57 | 192 | 8.0 | 14.0 | 0.00 | 0.19 | 0.00 | 77 | 1009.3 |
| 20260506114528 | 57 | 213 | 9.0 | 13.0 | 0.00 | 0.19 | 0.00 | 79 | 1009.4 |
| 20260506113015 | 56 | 196 | 7.0 | 14.0 | 0.00 | 0.19 | 0.00 | 79 | 1009.5 |
| 20260506111520 | 56 | 223 | 6.0 | 13.0 | 0.00 | 0.19 | 0.00 | 81 | 1009.5 |
| 20260506110026 | 56 | 221 | 8.0 | 13.0 | 0.00 | 0.19 | 0.00 | 79 | 1009.7 |
| 20260506104551 | 55 | 217 | 6.0 | 12.0 | 0.00 | 0.19 | 0.00 | 80 | 1009.7 |
| 20260506103031 | 55 | 219 | 7.0 | 12.0 | 0.00 | 0.19 | 0.00 | 81 | 1009.7 |
| 20260506101518 | 54 | 220 | 8.0 | 13.0 | 0.00 | 0.19 | 0.00 | 83 | 1009.8 |
| 20260506100004 | 54 | 227 | 8.0 | 12.0 | 0.00 | 0.19 | 0.00 | 84 | 1009.6 |
| 20260506094504 | 53 | 222 | 7.0 | 14.0 | 0.00 | 0.19 | 0.00 | 86 | 1009.6 |
| 20260506093010 | 53 | 238 | 4.0 | 12.0 | 0.00 | 0.19 | 0.00 | 88 | 1009.6 |
| 20260506091516 | 53 | 238 | 6.0 | 12.0 | 0.00 | 0.19 | 0.00 | 88 | 1009.4 |
| 20260506090020 | 53 | 232 | 5.0 | 10.0 | 0.00 | 0.19 | 0.00 | 88 | 1009.3 |
| 20260506084506 | 52 | 229 | 8.0 | 12.0 | 0.00 | 0.19 | 0.00 | 87 | 1009.1 |
| 20260506083018 | 52 | 221 | 6.0 | 10.0 | 0.00 | 0.19 | 0.00 | 86 | 1009.1 |
| 20260506081513 | 52 | 236 | 5.0 | 9.0 | 0.00 | 0.19 | 0.00 | 87 | 1008.9 |
| 20260506073005 | 51 | 230 | 2.0 | 8.0 | 0.00 | 0.19 | 0.00 | 88 | 1008.8 |
| 20260506071509 | 51 | 247 | 4.0 | 7.0 | 0.00 | 0.19 | 0.00 | 88 | 1008.6 |